K5GLH Weather Reports


time (UTC)temp
C
wind
direction
speed
KPH
gust
KPH
rain 1hr
cm
rain 24hr
cm
rain mn
cm
humidity
%
barometer
mb
20260507114507 5 357 0.0 0.0 0.00 0.00 0.00 88 1019.6
20260507114009 5 357 0.0 0.0 0.00 0.00 0.00 87 1019.7
20260507113511 5 357 0.0 0.0 0.00 0.00 0.00 87 1019.7
20260507113019 5 357 0.0 0.0 0.00 0.00 0.00 87 1019.6
20260507112512 5 357 0.0 0.0 0.00 0.00 0.00 87 1019.5
20260507112007 5 357 0.0 0.0 0.00 0.00 0.00 87 1019.5
20260507111506 5 357 0.0 0.0 0.00 0.00 0.00 87 1019.4
20260507111004 5 357 0.0 0.0 0.00 0.00 0.00 87 1019.6
20260507110504 5 357 0.0 0.0 0.00 0.00 0.00 87 1019.6
20260507110010 5 337 0.0 0.0 0.00 0.00 0.00 87 1019.3
20260507105503 5 337 0.0 0.0 0.00 0.00 0.00 87 1019.5
20260507105003 5 357 0.0 0.0 0.00 0.00 0.00 87 1019.4
20260507104503 5 357 0.0 0.0 0.00 0.00 0.00 87 1019.5
20260507104003 5 337 0.0 0.0 0.00 0.00 0.00 87 1019.4
20260507103503 5 337 0.0 0.0 0.00 0.00 0.00 86 1019.3
20260507103001 5 337 0.0 0.0 0.00 0.00 0.00 86 1019.2
20260507102501 5 337 0.0 0.0 0.00 0.00 0.00 86 1019.3
20260507102001 5 357 0.0 0.0 0.00 0.00 0.00 86 1019.4
20260507101507 6 357 0.0 0.0 0.00 0.00 0.00 86 1019.3
20260507101059 6 357 0.0 0.0 0.00 0.00 0.00 86 1019.3
20260507100559 6 336 0.0 0.0 0.00 0.00 0.00 86 1019.0
20260507100107 6 337 0.0 0.0 0.00 0.00 0.00 85 1019.0
20260507095559 6 337 0.0 0.0 0.00 0.00 0.00 85 1019.1
20260507095103 6 337 0.0 0.0 0.00 0.00 0.00 85 1019.0
20260507094559 6 337 0.0 0.0 0.00 0.00 0.00 85 1019.1
20260507094057 6 357 0.0 0.0 0.00 0.00 0.00 85 1019.0
20260507093556 6 338 0.0 0.0 0.00 0.00 0.00 85 1019.2
20260507093056 6 338 0.0 0.0 0.00 0.00 0.00 85 1019.3
20260507092556 6 337 0.0 1.6 0.00 0.00 0.00 85 1019.1
20260507092055 6 338 0.0 3.2 0.00 0.00 0.00 85 1018.9
20260507091555 6 337 0.0 3.2 0.00 0.00 0.00 85 1018.9
20260507091055 6 357 1.6 3.2 0.00 0.00 0.00 85 1018.9
20260507090555 6 337 0.0 0.0 0.00 0.00 0.00 85 1018.7
20260507090056 6 357 0.0 0.0 0.00 0.00 0.00 84 1018.7
20260507085553 6 357 0.0 0.0 0.00 0.00 0.00 84 1018.7
20260507085053 6 357 0.0 0.0 0.00 0.00 0.00 84 1018.7
20260507084600 6 357 0.0 0.0 0.00 0.00 0.00 84 1018.9
20260507084052 6 337 0.0 0.0 0.00 0.00 0.00 83 1018.9
20260507083552 6 337 0.0 0.0 0.00 0.00 0.00 83 1018.6
20260507083051 6 337 0.0 0.0 0.00 0.00 0.00 83 1018.8
20260507082551 6 337 0.0 0.0 0.00 0.00 0.00 83 1018.9
20260507082051 6 337 0.0 0.0 0.00 0.00 0.00 83 1018.9
20260507081550 6 337 0.0 0.0 0.00 0.00 0.00 83 1018.8
20260507081050 6 337 0.0 0.0 0.00 0.00 0.00 82 1018.8
20260507080551 7 337 0.0 0.0 0.00 0.00 0.00 82 1018.9
20260507080048 7 357 0.0 0.0 0.00 0.00 0.00 82 1018.9
20260507075547 7 357 0.0 0.0 0.00 0.00 0.00 82 1019.0
20260507075049 7 357 0.0 0.0 0.00 0.00 0.00 82 1019.1
20260507074549 7 357 0.0 0.0 0.00 0.00 0.00 81 1019.1
20260507074045 7 337 0.0 0.0 0.00 0.00 0.00 81 1019.2
20260507073550 7 337 0.0 0.0 0.00 0.00 0.00 81 1019.1
20260507073102 7 337 0.0 0.0 0.00 0.00 0.00 81 1019.1
20260507072544 7 337 0.0 0.0 0.00 0.00 0.00 81 1019.2
20260507072043 7 337 0.0 0.0 0.00 0.00 0.00 80 1019.1
20260507071543 7 337 0.0 0.0 0.00 0.00 0.00 80 1019.1
20260507071043 7 337 0.0 0.0 0.00 0.00 0.00 80 1019.0
20260507070543 7 337 0.0 0.0 0.00 0.00 0.00 80 1019.0
20260507070043 7 357 0.0 0.0 0.00 0.00 0.00 79 1018.9
20260507065540 7 357 0.0 0.0 0.00 0.00 0.00 79 1019.0
20260507065040 7 357 0.0 0.0 0.00 0.00 0.00 79 1019.0
20260507064546 7 337 0.0 0.0 0.00 0.00 0.00 79 1019.2
20260507064039 7 337 0.0 0.0 0.00 0.00 0.00 78 1019.2
20260507063536 8 357 0.0 1.6 0.00 0.00 0.00 78 1019.4
20260507063045 8 357 0.0 1.6 0.00 0.00 0.00 78 1019.4
20260507062535 8 357 0.0 1.6 0.00 0.00 0.00 77 1019.6
20260507062034 8 357 0.0 0.0 0.00 0.00 0.00 77 1019.5
20260507061538 8 357 0.0 1.6 0.00 0.00 0.00 77 1019.7
20260507061033 8 357 0.0 1.6 0.00 0.00 0.00 76 1019.7
20260507060532 8 357 0.0 1.6 0.00 0.00 0.00 76 1019.6
20260507060036 8 357 0.0 1.6 0.00 0.00 0.00 75 1019.5
20260507055532 8 357 0.0 0.0 0.00 0.00 0.00 75 1019.5
20260507055030 8 357 0.0 0.0 0.00 0.00 0.00 74 1019.6
20260507054528 9 357 0.0 1.6 0.00 0.00 0.00 74 1019.6
20260507054030 9 357 0.0 1.6 0.00 0.00 0.00 73 1019.8
20260507053527 9 357 0.0 0.0 0.00 0.00 0.00 72 1019.8
20260507053032 10 357 0.0 0.0 0.00 0.00 0.00 71 1019.8
20260507052523 10 357 0.0 0.0 0.00 0.00 0.00 71 1019.6
20260507052024 10 336 0.0 1.6 0.00 0.00 0.00 70 1019.5
20260507051521 10 357 0.0 1.6 0.00 0.00 0.00 70 1019.5
20260507051022 10 357 0.0 3.2 0.00 0.00 0.00 70 1019.5
20260507050518 10 336 0.0 3.2 0.00 0.00 0.00 69 1019.4
20260507050020 10 357 0.0 1.6 0.00 0.00 0.00 69 1019.4
20260507045518 11 337 0.0 3.2 0.00 0.00 0.00 68 1019.3
20260507045018 11 337 1.6 4.8 0.00 0.00 0.00 68 1019.4
20260507044518 11 357 1.6 4.8 0.00 0.00 0.00 67 1019.2
20260507044017 11 357 1.6 4.8 0.00 0.00 0.00 67 1019.1
20260507043516 11 357 3.2 6.4 0.00 0.00 0.00 67 1019.1
20260507043017 11 357 3.2 6.4 0.00 0.00 0.00 67 1019.0
20260507042515 11 58 1.6 6.4 0.00 0.00 0.00 68 1018.3
20260507042013 11 357 0.0 6.4 0.00 0.00 0.00 68 1018.2
20260507041515 11 54 0.0 3.2 0.00 0.00 0.00 67 1018.3
20260507041013 11 357 0.0 1.6 0.00 0.00 0.00 67 1018.3
20260507040513 11 357 0.0 1.6 0.00 0.00 0.00 67 1018.2
20260507040013 11 50 0.0 1.6 0.00 0.00 0.00 66 1018.3
20260507035513 11 49 0.0 1.6 0.00 0.00 0.00 65 1018.5
20260507035013 11 50 0.0 3.2 0.00 0.00 0.00 64 1018.6
20260507034514 12 50 0.0 3.2 0.00 0.00 0.00 64 1018.5
20260507034013 12 50 0.0 1.6 0.00 0.00 0.00 63 1018.5
20260507033516 12 50 0.0 3.2 0.00 0.00 0.00 63 1018.5
20260507033011 12 52 0.0 3.2 0.00 0.00 0.00 62 1018.4
20260507032510 12 49 0.0 1.6 0.00 0.00 0.00 61 1018.4
20260507032010 12 50 0.0 3.2 0.00 0.00 0.00 61 1018.3
20260507031510 12 52 0.0 4.8 0.00 0.00 0.00 61 1018.4
20260507031111 13 50 1.6 4.8 0.00 0.00 0.00 60 1018.3
20260507030553 13 54 0.0 4.8 0.00 0.00 0.00 60 1018.1
20260507030053 13 357 1.6 4.8 0.00 0.00 0.00 59 1018.0
20260507025553 13 52 0.0 4.8 0.00 0.00 0.00 59 1017.9
20260507025053 13 49 1.6 4.8 0.00 0.00 0.00 58 1017.8
20260507024600 13 357 0.0 6.4 0.00 0.00 0.00 58 1017.7
20260507024053 13 52 0.0 6.4 0.00 0.00 0.00 58 1017.9
20260507023553 13 357 1.6 6.4 0.00 0.00 0.00 57 1017.9
20260507023053 13 50 0.0 8.0 0.00 0.00 0.00 57 1017.8
20260507022552 14 61 1.6 8.0 0.00 0.00 0.00 57 1017.7
20260507022052 14 357 1.6 8.0 0.00 0.00 0.00 58 1017.7
20260507021601 14 357 3.2 8.0 0.00 0.00 0.00 57 1017.6
20260507021052 14 63 1.6 16.1 0.00 0.00 0.00 57 1017.7
20260507020551 14 357 4.8 16.1 0.00 0.00 0.00 57 1017.6
20260507020052 15 357 4.8 12.9 0.00 0.00 0.00 57 1017.5
20260507015551 15 27 3.2 9.7 0.00 0.00 0.00 56 1017.5
20260507015053 15 52 1.6 6.4 0.00 0.00 0.00 56 1017.4
20260507014553 15 357 3.2 8.0 0.00 0.00 0.00 56 1017.2
20260507014051 15 52 1.6 9.7 0.00 0.00 0.00 55 1017.1
20260507013550 15 357 3.2 9.7 0.00 0.00 0.00 54 1017.1
20260507013108 15 357 3.2 9.7 0.00 0.00 0.00 54 1017.2
20260507012550 15 357 1.6 9.7 0.00 0.00 0.00 54 1017.1
20260507012050 15 54 3.2 17.7 0.00 0.00 0.00 54 1017.0
20260507011550 15 357 6.4 17.7 0.00 0.00 0.00 53 1016.9
20260507011049 16 357 4.8 9.7 0.00 0.00 0.00 53 1016.9
20260507010548 16 41 3.2 9.7 0.00 0.00 0.00 53 1016.9
20260507010052 16 46 3.2 14.5 0.00 0.00 0.00 53 1017.0
20260507005551 16 357 4.8 14.5 0.00 0.00 0.00 52 1017.0
20260507005049 16 357 4.8 12.9 0.00 0.00 0.00 52 1016.9
20260507004548 16 357 4.8 14.5 0.00 0.00 0.00 52 1016.9
20260507004048 16 357 3.2 14.5 0.00 0.00 0.00 52 1016.8
20260507003548 16 64 6.4 19.3 0.00 0.00 0.00 52 1016.8
20260507003046 16 357 4.8 19.3 0.00 0.00 0.00 52 1016.8
20260507002546 16 357 4.8 9.7 0.00 0.00 0.00 51 1016.8
20260507002047 16 357 3.2 12.9 0.00 0.00 0.00 50 1016.5
20260507001605 17 357 4.8 14.5 0.00 0.00 0.00 50 1016.6
20260507001045 17 357 3.2 14.5 0.00 0.00 0.00 50 1016.5
20260507000545 17 59 4.8 12.9 0.00 0.00 0.00 50 1016.5
20260507000044 17 357 4.8 22.5 0.00 0.00 0.00 50 1016.5
20260506235545 17 357 6.4 22.5 0.00 0.00 0.00 51 1016.5
20260506235045 17 357 6.4 17.7 0.00 0.00 0.00 49 1016.5
20260506234555 17 357 6.4 16.1 0.00 0.00 0.00 49 1016.4
20260506234043 17 357 4.8 19.3 0.00 0.00 0.00 49 1016.4
20260506233544 17 357 6.4 19.3 0.00 0.00 0.00 49 1016.4
20260506233044 17 73 1.6 9.7 0.00 0.00 0.00 50 1016.2
20260506232545 17 64 3.2 9.7 0.00 0.00 0.00 49 1016.2
20260506232044 18 66 3.2 12.9 0.00 0.00 0.00 50 1016.2
20260506231542 18 24 3.2 12.9 0.00 0.00 0.00 50 1016.2
20260506231042 18 97 4.8 14.5 0.00 0.00 0.00 50 1016.1
20260506230542 18 61 3.2 16.1 0.00 0.00 0.00 51 1016.1
20260506230042 18 101 3.2 16.1 0.00 0.00 0.00 49 1016.1
20260506225546 18 82 3.2 14.5 0.00 0.00 0.00 49 1016.1
20260506225041 18 357 3.2 16.1 0.00 0.00 0.00 49 1016.0
20260506224549 18 76 4.8 19.3 0.00 0.00 0.00 50 1016.0
20260506224040 18 56 8.0 19.3 0.00 0.00 0.00 51 1016.0
20260506223540 18 80 3.2 11.3 0.00 0.00 0.00 50 1015.8
20260506223038 18 357 4.8 19.3 0.00 0.00 0.00 51 1015.7
20260506222541 17 357 6.4 19.3 0.00 0.00 0.00 50 1015.6
20260506222036 17 46 4.8 16.1 0.00 0.00 0.00 52 1015.8
20260506221536 17 357 6.4 17.7 0.00 0.00 0.00 53 1015.7
20260506221036 17 66 3.2 17.7 0.00 0.00 0.00 53 1015.7
20260506220534 17 357 4.8 17.7 0.00 0.00 0.00 54 1015.6
20260506220044 16 357 6.4 17.7 0.00 0.00 0.00 53 1015.6
20260506215534 17 127 3.2 16.1 0.00 0.00 0.00 53 1015.7
20260506215034 17 76 4.8 17.7 0.00 0.00 0.00 53 1015.8
20260506214535 17 357 4.8 17.7 0.00 0.00 0.00 53 1015.8
20260506214033 16 74 3.2 17.7 0.00 0.00 0.00 55 1015.9
20260506213532 16 41 4.8 14.5 0.00 0.00 0.00 56 1015.9
20260506213031 16 43 6.4 14.5 0.00 0.00 0.00 54 1015.9
20260506212531 16 357 6.4 20.9 0.00 0.00 0.00 54 1015.9
20260506212031 16 58 3.2 20.9 0.00 0.00 0.00 56 1016.0
20260506211531 16 95 3.2 17.7 0.00 0.00 0.00 55 1016.1
20260506211031 16 357 8.0 17.7 0.00 0.00 0.00 55 1016.1
20260506210531 16 357 9.7 17.7 0.00 0.00 0.00 54 1016.3
20260506210030 16 2 6.4 22.5 0.00 0.00 0.00 55 1016.3
20260506205530 16 19 6.4 22.5 0.00 0.00 0.00 56 1016.2
20260506205029 16 357 4.8 22.5 0.00 0.00 0.00 55 1016.2
20260506204536 16 39 9.7 19.3 0.00 0.00 0.00 56 1016.4
20260506204033 15 334 4.8 16.1 0.00 0.00 0.00 56 1016.3
20260506203529 16 37 8.0 17.7 0.00 0.00 0.00 55 1016.5
20260506203028 16 357 6.4 22.5 0.00 0.00 0.00 57 1016.6
20260506202528 16 357 8.0 22.5 0.00 0.00 0.00 56 1016.5
20260506202028 16 357 9.7 24.1 0.00 0.00 0.00 56 1016.5
20260506201528 16 47 8.0 24.1 0.00 0.00 0.00 56 1016.5
20260506201028 16 29 8.0 17.7 0.00 0.00 0.00 56 1016.5
20260506200531 16 31 6.4 17.7 0.00 0.00 0.00 56 1016.5
20260506200028 16 357 9.7 17.7 0.00 0.00 0.00 55 1016.5
20260506195531 16 51 3.2 19.3 0.00 0.00 0.00 56 1016.5
20260506195027 16 357 6.4 16.1 0.00 0.00 0.00 55 1016.5
20260506194534 16 357 8.0 16.1 0.00 0.00 0.00 54 1016.5
20260506194029 16 357 6.4 17.7 0.00 0.00 0.00 54 1016.5
20260506193528 16 65 8.0 19.3 0.00 0.00 0.00 54 1016.3
20260506193026 16 357 6.4 22.5 0.00 0.00 0.00 52 1016.5
20260506192525 17 75 8.0 22.5 0.00 0.00 0.00 53 1016.4
20260506192024 16 83 4.8 16.1 0.00 0.00 0.00 54 1016.4
20260506191524 16 357 6.4 16.1 0.00 0.00 0.00 55 1016.7
20260506191023 16 47 4.8 22.5 0.00 0.00 0.00 54 1016.8
20260506190523 16 129 8.0 22.5 0.00 0.00 0.00 53 1016.6
20260506190023 16 60 9.7 20.9 0.00 0.00 0.00 53 1016.7
20260506185524 16 111 4.8 17.7 0.00 0.00 0.00 55 1016.7
20260506185022 16 60 4.8 16.1 0.00 0.00 0.00 53 1016.7
20260506184527 16 43 6.4 16.1 0.00 0.00 0.00 53 1016.8
20260506184022 16 16 6.4 16.1 0.00 0.00 0.00 53 1016.9
20260506183521 16 60 4.8 17.7 0.00 0.00 0.00 54 1016.9
20260506183020 16 152 4.8 17.7 0.00 0.00 0.00 53 1017.0
20260506182518 16 77 4.8 17.7 0.00 0.00 0.00 55 1016.8
20260506182023 16 101 4.8 16.1 0.00 0.00 0.00 55 1017.0
20260506181518 16 26 6.4 16.1 0.00 0.00 0.00 53 1017.0
20260506181017 16 78 3.2 22.5 0.00 0.00 0.00 54 1017.1
20260506180516 15 61 6.4 22.5 0.00 0.00 0.00 55 1017.3
20260506180016 15 98 4.8 14.5 0.00 0.00 0.00 55 1017.4
20260506175516 15 125 6.4 19.3 0.00 0.00 0.00 54 1017.4
20260506175017 15 89 4.8 20.9 0.00 0.00 0.00 54 1017.6
20260506174517 15 104 9.7 20.9 0.00 0.00 0.00 53 1017.6
20260506174014 15 40 4.8 20.9 0.00 0.00 0.00 55 1017.7
20260506173513 15 139 4.8 20.9 0.00 0.00 0.00 56 1017.6
20260506173012 15 104 11.3 22.5 0.00 0.00 0.00 53 1017.5
20260506172511 15 81 4.8 19.3 0.00 0.00 0.00 55 1017.5
20260506172010 15 83 4.8 20.9 0.00 0.00 0.00 56 1017.7
20260506171508 15 37 9.7 20.9 0.00 0.00 0.00 55 1017.6
20260506171011 14 81 8.0 17.7 0.00 0.00 0.00 55 1017.6
20260506170507 14 85 8.0 17.7 0.00 0.00 0.00 56 1017.5
20260506170039 14 102 9.7 19.3 0.00 0.00 0.00 55 1017.7
20260506165537 14 95 4.8 19.3 0.00 0.00 0.00 58 1017.7
20260506165036 14 92 6.4 19.3 0.00 0.00 0.00 58 1017.8
20260506164535 13 62 6.4 19.3 0.00 0.00 0.00 58 1017.7
20260506164034 13 357 6.4 17.7 0.00 0.00 0.00 58 1017.9
20260506163535 13 84 3.2 11.3 0.00 0.00 0.00 60 1017.9
20260506163031 13 89 3.2 16.1 0.00 0.00 0.00 62 1018.0
20260506162529 12 46 6.4 19.3 0.00 0.00 0.00 62 1018.1
20260506162032 12 357 4.8 24.1 0.00 0.00 0.00 62 1018.0
20260506161529 12 15 4.8 19.3 0.00 0.00 0.00 62 1018.1
20260506161031 12 95 8.0 19.3 0.00 0.00 0.00 63 1018.1
20260506160531 12 71 6.4 25.7 0.00 0.00 0.00 63 1017.9
20260506160036 12 116 6.4 25.7 0.00 0.00 0.00 64 1017.9
20260506155525 12 105 6.4 19.3 0.00 0.00 0.00 67 1017.9
20260506155024 12 125 4.8 17.7 0.00 0.00 0.00 68 1017.8
20260506154524 12 93 4.8 20.9 0.00 0.00 0.00 67 1017.6
20260506154022 11 31 3.2 20.9 0.00 0.00 0.00 68 1017.8
20260506153522 11 59 8.0 24.1 0.00 0.00 0.00 68 1017.8
20260506153020 11 89 6.4 24.1 0.00 0.00 0.00 69 1017.6
20260506152518 11 112 9.7 20.9 0.00 0.00 0.00 70 1017.6
20260506152055 11 357 6.4 22.5 0.00 0.00 0.00 71 1017.5
20260506151554 11 73 9.7 24.1 0.00 0.00 0.00 71 1017.4
20260506151052 11 357 6.4 24.1 0.00 0.00 0.00 71 1017.4
20260506150553 11 93 4.8 17.7 0.00 0.00 0.00 72 1017.2
20260506150051 11 37 4.8 19.3 0.00 0.00 0.00 72 1017.2
20260506145548 11 85 6.4 19.3 0.00 0.00 0.00 72 1017.1
20260506145047 10 357 4.8 25.7 0.00 0.00 0.00 73 1017.0
20260506144550 10 74 8.0 25.7 0.00 0.00 0.00 72 1016.9
20260506144045 10 50 6.4 22.5 0.00 0.00 0.00 73 1016.8
20260506143545 10 357 9.7 20.9 0.00 0.00 0.00 74 1016.6
20260506143042 10 50 4.8 22.5 0.00 0.00 0.00 75 1016.6
20260506142542 10 47 3.2 22.5 0.00 0.00 0.00 75 1016.7
20260506142045 9 44 4.8 24.1 0.00 0.00 0.00 76 1016.7
20260506141539 9 357 6.4 24.1 0.00 0.00 0.00 77 1016.7
20260506141038 9 60 6.4 19.3 0.00 0.00 0.00 77 1016.7
20260506140538 9 357 8.0 19.3 0.00 0.00 0.00 77 1016.9
20260506140038 9 357 8.0 19.3 0.00 0.00 0.00 77 1016.8
20260506135537 9 39 8.0 20.9 0.00 0.00 0.00 78 1016.9
20260506135037 8 357 8.0 24.1 0.00 0.00 0.00 77 1016.8
20260506134536 8 64 11.3 29.0 0.00 0.00 0.00 78 1016.9
20260506134037 8 43 11.3 29.0 0.00 0.00 0.00 78 1016.9
20260506133536 8 62 6.4 16.1 0.00 0.00 0.00 78 1016.9
20260506133034 8 10 6.4 25.7 0.00 0.00 0.00 78 1016.8
20260506132534 8 43 8.0 25.7 0.00 0.00 0.00 79 1016.7
20260506132037 8 80 3.2 24.1 0.00 0.00 0.00 79 1016.7
20260506131545 8 357 6.4 24.1 0.00 0.00 0.00 79 1016.7
20260506131032 8 357 8.0 24.1 0.00 0.00 0.00 80 1016.6
20260506130633 8 81 8.0 24.1 0.00 0.00 0.00 80 1016.5
20260506130038 8 81 11.3 24.1 0.00 0.00 0.00 80 1016.5
20260506125530 8 357 9.7 19.3 0.00 0.00 0.00 80 1016.2
20260506125029 8 71 8.0 19.3 0.00 0.00 0.00 80 1016.1
20260506124531 8 27 4.8 20.9 0.00 0.00 0.00 80 1016.5
20260506124029 8 81 4.8 20.9 0.00 0.00 0.00 80 1016.4
20260506123531 8 357 3.2 17.7 0.00 0.00 0.00 80 1016.3
20260506123029 8 357 4.8 17.7 0.00 0.00 0.00 79 1016.2
20260506122526 8 357 6.4 17.7 0.00 0.00 0.00 79 1015.7
20260506122025 8 46 3.2 20.9 0.00 0.00 0.00 79 1015.6
20260506121525 8 46 4.8 19.3 0.00 0.00 0.00 79 1015.8
20260506121027 8 35 3.2 19.3 0.00 0.00 0.00 79 1015.5
20260506120527 8 357 4.8 17.7 0.00 0.00 0.00 79 1015.6
20260506120025 8 357 6.4 17.7 0.00 0.00 0.00 79 1015.4
20260506115525 8 72 6.4 17.7 0.00 0.00 0.00 79 1015.3
20260506115023 8 357 4.8 9.7 0.00 0.00 0.00 79 1015.4